FW8270 Weather Reports


Display with metric or nautical units.
time (UTC)temp
F
wind
direction
speed
MPH
gust
MPH
rain 1hr
in
rain 24hr
in
rain mn
in
humidity
%
barometer
mb
20260507031540 55 0 0.0 1.0 0.00 0.00 0.00 83 1022.0
20260507030041 55 0 0.0 1.0 0.00 0.00 0.00 83 1022.1
20260507024541 55 0 0.0 1.0 0.00 0.00 0.00 82 1022.1
20260507023038 55 0 0.0 0.0 0.00 0.00 0.00 82 1022.1
20260507021539 55 23 0.0 2.0 0.00 0.00 0.00 82 1021.9
20260507020059 56 0 0.0 1.0 0.00 0.00 0.00 81 1022.0
20260507014556 56 0 0.0 1.0 0.00 0.00 0.00 80 1021.9
20260507013045 56 0 0.0 1.0 0.00 0.00 0.00 80 1022.0
20260507011543 56 165 0.0 4.0 0.00 0.00 0.00 78 1022.1
20260507010043 56 0 0.0 2.0 0.00 0.00 0.00 78 1022.0
20260507004536 56 137 0.0 2.0 0.00 0.00 0.00 77 1022.1
20260507003041 57 214 0.0 2.0 0.00 0.00 0.00 76 1022.1
20260507001557 57 178 0.0 8.0 0.00 0.00 0.00 77 1022.1
20260507000046 57 0 0.0 4.0 0.00 0.00 0.00 76 1022.1
20260506234543 56 0 0.0 2.0 0.00 0.00 0.00 76 1022.2
20260506233039 57 0 0.0 5.0 0.00 0.00 0.00 75 1022.1
20260506231539 57 191 0.0 1.0 0.00 0.00 0.00 75 1022.1
20260506230042 57 196 1.0 8.0 0.00 0.00 0.00 75 1022.1
20260506224534 57 0 0.0 8.0 0.00 0.00 0.00 75 1022.1
20260506223040 57 180 0.0 8.0 0.00 0.00 0.00 75 1022.2
20260506221550 57 136 1.0 8.0 0.00 0.00 0.00 74 1022.1
20260506220045 56 0 0.0 4.0 0.00 0.00 0.00 75 1022.4
20260506214537 57 210 0.0 3.0 0.00 0.00 0.00 76 1022.2
20260506213043 56 0 0.0 9.0 0.00 0.00 0.00 78 1022.3
20260506211542 56 0 0.0 2.0 0.00 0.00 0.00 78 1022.4
20260506210046 56 0 0.0 6.0 0.00 0.00 0.00 80 1022.3
20260506204541 56 158 1.0 7.0 0.00 0.00 0.00 80 1022.3
20260506203037 56 181 2.0 6.0 0.00 0.00 0.00 80 1022.5
20260506201539 55 0 1.0 5.0 0.00 0.00 0.00 82 1022.3
20260506200044 55 0 0.0 7.0 0.00 0.00 0.00 84 1022.4
20260506194544 55 0 0.0 2.0 0.00 0.00 0.00 86 1022.0
20260506193049 54 0 1.0 5.0 0.00 0.00 0.00 88 1022.1
20260506191537 54 0 0.0 1.0 0.00 0.00 0.00 87 1022.1
20260506190036 54 93 0.0 1.0 0.00 0.00 0.00 87 1022.0
20260506184540 54 0 0.0 3.0 0.00 0.00 0.00 88 1022.0
20260506183035 54 0 0.0 2.0 0.00 0.00 0.00 89 1021.8
20260506181556 53 0 0.0 0.0 0.00 0.00 0.00 89 1021.9
20260506180038 53 0 0.0 1.0 0.00 0.00 0.00 88 1022.0
20260506174538 54 0 0.0 1.0 0.00 0.00 0.00 87 1021.4
20260506173103 54 0 1.0 5.0 0.00 0.00 0.00 85 1021.6
20260506171542 54 0 0.0 5.0 0.00 0.00 0.00 85 1021.9
20260506170051 54 0 0.0 1.0 0.00 0.00 0.00 86 1021.8
20260506164541 54 0 0.0 1.0 0.00 0.00 0.00 85 1021.6
20260506163051 54 0 0.0 1.0 0.00 0.00 0.00 86 1021.5
20260506161540 54 0 0.0 3.0 0.00 0.00 0.00 87 1021.3
20260506160042 54 0 0.0 1.0 0.00 0.00 0.00 87 1021.2
20260506154555 54 168 0.0 7.0 0.00 0.00 0.00 89 1020.8
20260506153041 53 146 1.0 4.0 0.00 0.00 0.00 89 1021.3
20260506151542 53 0 0.0 2.0 0.00 0.00 0.00 90 1021.4
20260506150041 53 0 0.0 1.0 0.00 0.00 0.00 90 1021.3
20260506144550 53 0 0.0 3.0 0.00 0.00 0.00 90 1021.0
20260506143036 53 0 0.0 0.0 0.00 0.00 0.00 90 1021.0
20260506141537 53 153 0.0 2.0 0.00 0.00 0.00 89 1021.1
20260506140037 53 0 0.0 2.0 0.00 0.00 0.00 89 1021.0
20260506134542 53 152 0.0 1.0 0.00 0.00 0.00 89 1020.9
20260506133055 53 0 0.0 2.0 0.00 0.00 0.00 88 1020.8
20260506131537 53 0 0.0 0.0 0.00 0.00 0.00 87 1020.6
20260506130039 53 0 0.0 2.0 0.00 0.00 0.00 88 1020.4
20260506124537 53 0 0.0 0.0 0.00 0.00 0.00 88 1020.1
20260506123032 53 0 0.0 0.0 0.00 0.00 0.00 88 1020.2
20260506121541 53 0 0.0 1.0 0.00 0.00 0.00 87 1019.9
20260506120038 53 0 0.0 1.0 0.00 0.00 0.00 88 1019.9
20260506114540 53 0 0.0 2.0 0.00 0.00 0.00 88 1019.9
20260506113037 53 0 0.0 3.0 0.00 0.00 0.00 88 1019.8
20260506111535 53 169 0.0 2.0 0.00 0.00 0.00 89 1019.5
20260506110041 52 0 0.0 0.0 0.00 0.00 0.00 91 1019.4
20260506104606 52 0 0.0 0.0 0.00 0.00 0.00 92 1019.4
20260506103041 52 0 0.0 0.0 0.00 0.00 0.00 93 1019.3
20260506101541 51 0 0.0 0.0 0.00 0.00 0.00 93 1019.4
20260506100042 51 0 0.0 0.0 0.00 0.00 0.00 93 1019.3
20260506094538 50 0 0.0 0.0 0.00 0.00 0.00 93 1019.3
20260506093035 50 0 0.0 0.0 0.00 0.00 0.00 92 1019.1
20260506091541 50 0 0.0 0.0 0.00 0.00 0.00 92 1019.0
20260506090046 51 0 0.0 0.0 0.00 0.00 0.00 92 1019.0
20260506084538 51 0 0.0 0.0 0.00 0.00 0.00 92 1018.9
20260506083042 51 0 0.0 0.0 0.00 0.00 0.00 92 1018.7
20260506081537 51 0 0.0 0.0 0.00 0.00 0.00 91 1018.4
20260506073040 52 0 0.0 0.0 0.00 0.00 0.00 90 1018.3
20260506071540 52 0 0.0 0.0 0.00 0.00 0.00 90 1018.1
20260506061532 54 0 0.0 0.0 0.00 0.00 0.00 88 1017.9
20260506044541 55 0 0.0 1.0 0.00 0.00 0.00 85 1017.1
20260506043047 56 0 0.0 0.0 0.00 0.00 0.00 84 1017.0
20260506041539 56 0 0.0 1.0 0.00 0.00 0.00 83 1017.0
20260506040046 57 0 0.0 1.0 0.00 0.00 0.00 81 1017.0
20260506034535 58 0 0.0 0.0 0.00 0.00 0.00 80 1016.8
20260506033035 59 0 0.0 0.0 0.00 0.00 0.00 78 1016.8